| time (UTC) | temp C | wind direction | speed KPH | gust KPH | rain 1hr cm | rain 24hr cm | rain mn cm | humidity % | barometer mb |
| 20260508102504 | 20 | 67 | 3.2 | 9.7 | 0.00 | 0.69 | 0.00 | 88 | 1014.1 |
| 20260508102004 | 20 | 83 | 4.8 | 9.7 | 0.00 | 0.69 | 0.00 | 88 | 1014.0 |
| 20260508101504 | 20 | 3 | 3.2 | 11.3 | 0.00 | 0.69 | 0.00 | 89 | 1014.0 |
| 20260508101003 | 20 | 88 | 4.8 | 12.9 | 0.00 | 0.69 | 0.00 | 89 | 1013.9 |
| 20260508100504 | 20 | 75 | 4.8 | 12.9 | 0.00 | 0.69 | 0.00 | 89 | 1013.9 |
| 20260508100004 | 20 | 65 | 4.8 | 9.7 | 0.00 | 0.69 | 0.00 | 89 | 1013.8 |
| 20260508095503 | 20 | 76 | 3.2 | 11.3 | 0.00 | 0.69 | 0.00 | 89 | 1013.7 |
| 20260508095004 | 20 | 67 | 3.2 | 8.0 | 0.00 | 0.69 | 0.00 | 89 | 1013.7 |
| 20260508094503 | 20 | 53 | 6.4 | 14.5 | 0.00 | 0.69 | 0.00 | 89 | 1013.4 |
| 20260508094004 | 20 | 80 | 6.4 | 14.5 | 0.00 | 0.69 | 0.00 | 89 | 1013.2 |
| 20260508093503 | 20 | 94 | 9.7 | 19.3 | 0.00 | 0.69 | 0.00 | 88 | 1013.3 |
| 20260508093004 | 20 | 71 | 4.8 | 12.9 | 0.00 | 0.69 | 0.00 | 89 | 1013.5 |
| 20260508092504 | 20 | 72 | 8.0 | 19.3 | 0.00 | 0.69 | 0.00 | 88 | 1013.3 |
| 20260508091503 | 20 | 79 | 6.4 | 11.3 | 0.00 | 0.69 | 0.00 | 88 | 1013.7 |
| 20260508091004 | 20 | 62 | 8.0 | 16.1 | 0.00 | 0.69 | 0.00 | 88 | 1013.7 |
| 20260508090503 | 20 | 74 | 4.8 | 12.9 | 0.00 | 0.69 | 0.00 | 88 | 1013.6 |
| 20260508085504 | 21 | 78 | 9.7 | 19.3 | 0.00 | 0.69 | 0.00 | 87 | 1013.3 |
| 20260508085003 | 21 | 73 | 8.0 | 14.5 | 0.00 | 0.69 | 0.00 | 87 | 1013.4 |
| 20260508084504 | 21 | 71 | 3.2 | 11.3 | 0.00 | 0.69 | 0.00 | 87 | 1013.5 |
| 20260508084003 | 21 | 74 | 6.4 | 12.9 | 0.00 | 0.69 | 0.00 | 87 | 1013.6 |
| 20260508083504 | 21 | 59 | 3.2 | 12.9 | 0.00 | 0.69 | 0.00 | 87 | 1013.7 |
| 20260508082504 | 21 | 50 | 3.2 | 8.0 | 0.00 | 0.69 | 0.00 | 88 | 1013.9 |
| 20260508082003 | 21 | 84 | 8.0 | 11.3 | 0.00 | 0.69 | 0.00 | 87 | 1013.7 |
| 20260508081504 | 21 | 62 | 0.0 | 8.0 | 0.00 | 0.69 | 0.00 | 88 | 1013.7 |
| 20260508081004 | 21 | 86 | 3.2 | 11.3 | 0.00 | 0.69 | 0.00 | 87 | 1013.7 |
| 20260508080503 | 21 | 63 | 1.6 | 9.7 | 0.00 | 0.69 | 0.00 | 87 | 1013.7 |
| 20260508080004 | 21 | 80 | 3.2 | 8.0 | 0.00 | 0.69 | 0.00 | 87 | 1013.7 |
| 20260508075504 | 21 | 93 | 4.8 | 11.3 | 0.00 | 0.69 | 0.00 | 87 | 1013.7 |
| 20260508075003 | 21 | 60 | 4.8 | 12.9 | 0.00 | 0.69 | 0.00 | 87 | 1013.6 |
| 20260508074504 | 21 | 57 | 3.2 | 12.9 | 0.00 | 0.69 | 0.00 | 87 | 1013.7 |
| 20260508074004 | 21 | 70 | 3.2 | 9.7 | 0.00 | 0.69 | 0.00 | 87 | 1013.8 |
| 20260508073004 | 21 | 61 | 3.2 | 9.7 | 0.00 | 0.69 | 0.00 | 87 | 1013.9 |
| 20260508072504 | 21 | 75 | 1.6 | 11.3 | 0.00 | 0.71 | 0.00 | 87 | 1013.9 |
| 20260508072004 | 21 | 62 | 3.2 | 11.3 | 0.00 | 0.71 | 0.00 | 87 | 1013.8 |
| 20260508070503 | 21 | 53 | 3.2 | 11.3 | 0.00 | 0.71 | 0.00 | 87 | 1013.8 |
| 20260508070004 | 21 | 49 | 3.2 | 9.7 | 0.00 | 0.71 | 0.00 | 87 | 1013.7 |
| 20260508065004 | 21 | 54 | 4.8 | 11.3 | 0.00 | 0.74 | 0.00 | 87 | 1013.9 |
| 20260508064504 | 21 | 74 | 3.2 | 8.0 | 0.00 | 0.81 | 0.00 | 87 | 1013.9 |
| 20260508064004 | 21 | 32 | 1.6 | 3.2 | 0.00 | 0.81 | 0.00 | 87 | 1014.1 |
| 20260508063503 | 21 | 92 | 1.6 | 8.0 | 0.00 | 0.81 | 0.00 | 87 | 1014.3 |
| 20260508063004 | 21 | 64 | 1.6 | 4.8 | 0.00 | 0.81 | 0.00 | 87 | 1014.3 |
| 20260508062503 | 21 | 86 | 1.6 | 8.0 | 0.00 | 0.81 | 0.00 | 87 | 1014.3 |
| 20260508062004 | 21 | 69 | 0.0 | 0.0 | 0.00 | 0.81 | 0.00 | 88 | 1014.5 |
| 20260508061504 | 21 | 69 | 0.0 | 4.8 | 0.00 | 0.81 | 0.00 | 87 | 1014.5 |
| 20260508061005 | 21 | 25 | 3.2 | 11.3 | 0.00 | 0.81 | 0.00 | 86 | 1014.2 |
| 20260508060504 | 21 | 66 | 4.8 | 11.3 | 0.00 | 0.81 | 0.00 | 86 | 1014.1 |
| 20260508060004 | 21 | 62 | 1.6 | 9.7 | 0.00 | 0.81 | 0.00 | 87 | 1014.2 |
| 20260508055504 | 21 | 59 | 3.2 | 4.8 | 0.00 | 0.81 | 0.00 | 87 | 1014.2 |
| 20260508055003 | 21 | 59 | 3.2 | 8.0 | 0.00 | 0.81 | 0.00 | 87 | 1014.2 |
| 20260508054504 | 21 | 46 | 3.2 | 8.0 | 0.00 | 0.81 | 0.00 | 88 | 1014.3 |
| 20260508054004 | 21 | 69 | 1.6 | 4.8 | 0.00 | 0.81 | 0.00 | 87 | 1014.5 |
| 20260508053003 | 21 | 54 | 1.6 | 8.0 | 0.00 | 0.81 | 0.00 | 87 | 1014.7 |
| 20260508052503 | 20 | 69 | 3.2 | 9.7 | 0.00 | 0.81 | 0.00 | 88 | 1014.7 |
| 20260508052004 | 21 | 27 | 1.6 | 8.0 | 0.00 | 0.86 | 0.00 | 88 | 1014.7 |
| 20260508051004 | 21 | 62 | 0.0 | 0.0 | 0.00 | 0.86 | 0.00 | 88 | 1014.9 |
| 20260508050504 | 21 | 56 | 4.8 | 11.3 | 0.00 | 0.86 | 0.00 | 86 | 1014.6 |
| 20260508045504 | 21 | 66 | 3.2 | 8.0 | 0.00 | 0.86 | 0.86 | 86 | 1014.6 |
| 20260508045004 | 21 | 25 | 1.6 | 8.0 | 0.00 | 0.86 | 0.86 | 86 | 1014.7 |
| 20260508044504 | 21 | 55 | 3.2 | 12.9 | 0.00 | 0.86 | 0.86 | 86 | 1014.8 |
| 20260508044004 | 21 | 74 | 4.8 | 12.9 | 0.00 | 0.86 | 0.86 | 86 | 1014.9 |
| 20260508043504 | 21 | 38 | 1.6 | 4.8 | 0.00 | 0.86 | 0.86 | 86 | 1014.9 |
| 20260508042504 | 21 | 51 | 1.6 | 9.7 | 0.00 | 0.86 | 0.86 | 87 | 1015.2 |
| 20260508042004 | 21 | 20 | 1.6 | 8.0 | 0.00 | 0.86 | 0.86 | 87 | 1015.4 |
| 20260508041504 | 21 | 20 | 0.0 | 3.2 | 0.00 | 0.86 | 0.86 | 87 | 1015.3 |
| 20260508040504 | 21 | 65 | 3.2 | 9.7 | 0.00 | 0.89 | 0.86 | 85 | 1015.2 |
| 20260508040004 | 21 | 50 | 4.8 | 12.9 | 0.00 | 0.89 | 0.86 | 85 | 1015.1 |
| 20260508035504 | 21 | 63 | 4.8 | 12.9 | 0.00 | 0.89 | 0.86 | 85 | 1015.2 |
| 20260508035004 | 21 | 61 | 1.6 | 14.5 | 0.00 | 0.89 | 0.86 | 85 | 1015.3 |
| 20260508034503 | 21 | 66 | 8.0 | 14.5 | 0.00 | 0.89 | 0.86 | 84 | 1015.4 |
| 20260508033503 | 21 | 46 | 3.2 | 8.0 | 0.00 | 0.89 | 0.86 | 84 | 1015.5 |
| 20260508033004 | 21 | 53 | 3.2 | 9.7 | 0.00 | 0.89 | 0.86 | 84 | 1015.5 |
| 20260508032503 | 21 | 62 | 3.2 | 16.1 | 0.00 | 0.89 | 0.86 | 83 | 1015.4 |
| 20260508032004 | 21 | 53 | 4.8 | 11.3 | 0.00 | 0.89 | 0.86 | 83 | 1015.2 |
| 20260508031503 | 21 | 64 | 8.0 | 12.9 | 0.00 | 0.94 | 0.86 | 82 | 1015.3 |
| 20260508031004 | 22 | 66 | 8.0 | 14.5 | 0.00 | 0.94 | 0.86 | 83 | 1015.5 |
| 20260508030504 | 22 | 62 | 3.2 | 9.7 | 0.00 | 0.97 | 0.86 | 83 | 1015.6 |
| 20260508025504 | 22 | 78 | 8.0 | 14.5 | 0.00 | 1.04 | 0.86 | 82 | 1015.3 |
| 20260508025004 | 22 | 75 | 3.2 | 12.9 | 0.00 | 1.04 | 0.86 | 82 | 1015.2 |
| 20260508024504 | 22 | 66 | 4.8 | 12.9 | 0.00 | 1.04 | 0.86 | 82 | 1015.1 |
| 20260508024004 | 22 | 49 | 1.6 | 11.3 | 0.00 | 1.04 | 0.86 | 82 | 1015.1 |
| 20260508023504 | 22 | 73 | 1.6 | 9.7 | 0.00 | 1.04 | 0.86 | 82 | 1015.0 |
| 20260508023004 | 22 | 35 | 1.6 | 9.7 | 0.00 | 1.04 | 0.86 | 81 | 1014.9 |
| 20260508022503 | 22 | 69 | 3.2 | 9.7 | 0.00 | 1.04 | 0.86 | 80 | 1014.9 |
| 20260508022004 | 22 | 69 | 3.2 | 8.0 | 0.00 | 1.04 | 0.86 | 80 | 1014.8 |
| 20260508021504 | 22 | 62 | 6.4 | 16.1 | 0.00 | 1.04 | 0.86 | 80 | 1014.8 |
| 20260508020504 | 23 | 54 | 3.2 | 11.3 | 0.00 | 1.04 | 0.86 | 80 | 1014.8 |
| 20260508020004 | 23 | 77 | 3.2 | 11.3 | 0.00 | 1.04 | 0.86 | 80 | 1014.6 |
| 20260508015004 | 23 | 69 | 1.6 | 9.7 | 0.00 | 1.04 | 0.86 | 81 | 1014.7 |
| 20260508014003 | 23 | 51 | 3.2 | 9.7 | 0.00 | 1.04 | 0.86 | 83 | 1014.7 |
| 20260508013005 | 23 | 50 | 4.8 | 12.9 | 0.00 | 1.04 | 0.86 | 82 | 1014.5 |
| 20260508012503 | 23 | 31 | 0.0 | 0.0 | 0.00 | 1.04 | 0.86 | 84 | 1014.4 |
| 20260508012004 | 23 | 31 | 0.0 | 0.0 | 0.00 | 1.04 | 0.86 | 84 | 1014.4 |
| 20260508011504 | 23 | 31 | 0.0 | 0.0 | 0.00 | 1.04 | 0.86 | 82 | 1014.6 |
| 20260508011003 | 23 | 31 | 0.0 | 0.0 | 0.00 | 1.04 | 0.86 | 83 | 1014.5 |
| 20260508010504 | 23 | 31 | 0.0 | 0.0 | 0.00 | 1.04 | 0.86 | 83 | 1014.2 |
| 20260508010003 | 23 | 31 | 0.0 | 0.0 | 0.00 | 1.04 | 0.86 | 82 | 1014.1 |
| 20260508005504 | 23 | 31 | 0.0 | 1.6 | 0.00 | 1.04 | 0.86 | 80 | 1014.1 |
| 20260508004503 | 23 | 44 | 1.6 | 4.8 | 0.00 | 1.04 | 0.86 | 79 | 1013.7 |
| 20260508003504 | 23 | 50 | 1.6 | 9.7 | 0.00 | 1.04 | 0.86 | 79 | 1013.8 |
| 20260508003003 | 23 | 61 | 1.6 | 4.8 | 0.00 | 1.04 | 0.86 | 79 | 1013.9 |
| 20260508002504 | 23 | 14 | 3.2 | 8.0 | 0.00 | 1.04 | 0.86 | 79 | 1013.9 |
| 20260508002004 | 24 | 61 | 1.6 | 8.0 | 0.00 | 1.04 | 0.86 | 80 | 1013.8 |
| 20260508001503 | 24 | 42 | 0.0 | 3.2 | 0.00 | 1.04 | 0.86 | 80 | 1013.7 |
| 20260508001004 | 24 | 8 | 0.0 | 3.2 | 0.00 | 1.04 | 0.86 | 77 | 1013.6 |
| 20260508000503 | 24 | 81 | 1.6 | 4.8 | 0.00 | 1.04 | 0.86 | 77 | 1013.7 |
| 20260508000004 | 24 | 78 | 3.2 | 11.3 | 0.00 | 1.04 | 0.86 | 78 | 1013.7 |
| 20260507235003 | 24 | 43 | 1.6 | 8.0 | 0.00 | 1.04 | 0.86 | 78 | 1013.8 |
| 20260507233504 | 25 | 47 | 3.2 | 8.0 | 0.00 | 1.04 | 0.86 | 79 | 1013.8 |
| 20260507233004 | 25 | 54 | 0.0 | 4.8 | 0.00 | 1.04 | 0.86 | 80 | 1013.7 |
| 20260507232504 | 25 | 65 | 1.6 | 4.8 | 0.00 | 1.04 | 0.86 | 79 | 1013.8 |
| 20260507232004 | 25 | 116 | 1.6 | 3.2 | 0.00 | 1.04 | 0.86 | 77 | 1013.7 |
| 20260507231503 | 25 | 7 | 1.6 | 4.8 | 0.00 | 1.04 | 0.86 | 78 | 1013.8 |
| 20260507231004 | 25 | 42 | 0.0 | 4.8 | 0.00 | 1.04 | 0.86 | 78 | 1013.8 |
| 20260507230503 | 25 | 3 | 0.0 | 1.6 | 0.00 | 1.04 | 0.86 | 77 | 1013.8 |
| 20260507230005 | 25 | 0 | 0.0 | 0.0 | 0.00 | 1.04 | 0.86 | 79 | 1013.8 |
| 20260507225004 | 25 | 18 | 0.0 | 1.6 | 0.00 | 1.04 | 0.86 | 76 | 1013.9 |
| 20260507224504 | 25 | 17 | 0.0 | 3.2 | 0.00 | 1.04 | 0.86 | 77 | 1013.9 |
| 20260507224003 | 25 | 20 | 0.0 | 4.8 | 0.00 | 1.04 | 0.86 | 77 | 1013.9 |
| 20260507223504 | 25 | 44 | 0.0 | 4.8 | 0.00 | 1.04 | 0.86 | 76 | 1013.9 |
| 20260507223004 | 25 | 0 | 0.0 | 4.8 | 0.03 | 1.04 | 0.86 | 75 | 1013.9 |
| 20260507222503 | 25 | 158 | 0.0 | 4.8 | 0.03 | 1.04 | 0.86 | 75 | 1013.8 |
| 20260507222004 | 26 | 10 | 1.6 | 11.3 | 0.03 | 1.04 | 0.86 | 73 | 1013.8 |
| 20260507221504 | 26 | 348 | 0.0 | 1.6 | 0.03 | 1.04 | 0.86 | 72 | 1013.7 |
| 20260507221003 | 26 | 28 | 0.0 | 9.7 | 0.03 | 1.04 | 0.86 | 72 | 1013.6 |
| 20260507220504 | 26 | 41 | 0.0 | 4.8 | 0.03 | 1.04 | 0.86 | 72 | 1013.6 |
| 20260507220004 | 26 | 97 | 1.6 | 4.8 | 0.05 | 1.04 | 0.86 | 71 | 1013.5 |
| 20260507215004 | 26 | 20 | 1.6 | 4.8 | 0.05 | 1.07 | 0.86 | 70 | 1013.4 |
| 20260507214505 | 26 | 56 | 0.0 | 8.0 | 0.05 | 1.12 | 0.86 | 70 | 1013.4 |
| 20260507214004 | 26 | 45 | 1.6 | 4.8 | 0.05 | 1.12 | 0.86 | 71 | 1013.4 |
| 20260507213503 | 26 | 54 | 1.6 | 3.2 | 0.05 | 1.12 | 0.86 | 69 | 1013.4 |
| 20260507212504 | 26 | 48 | 1.6 | 4.8 | 0.03 | 1.09 | 0.84 | 73 | 1013.6 |
| 20260507212003 | 26 | 65 | 0.0 | 4.8 | 0.03 | 1.09 | 0.84 | 71 | 1013.5 |
| 20260507211504 | 26 | 62 | 1.6 | 4.8 | 0.03 | 1.09 | 0.84 | 72 | 1013.6 |
| 20260507211004 | 26 | 352 | 1.6 | 4.8 | 0.03 | 1.09 | 0.84 | 72 | 1013.6 |
| 20260507210504 | 26 | 38 | 1.6 | 3.2 | 0.03 | 1.09 | 0.84 | 74 | 1013.7 |
| 20260507210004 | 25 | 357 | 0.0 | 3.2 | 0.00 | 1.07 | 0.81 | 72 | 1013.7 |
| 20260507205003 | 25 | 324 | 1.6 | 4.8 | 0.00 | 1.12 | 0.81 | 75 | 1013.7 |
| 20260507204503 | 25 | 49 | 1.6 | 8.0 | 0.00 | 1.12 | 0.81 | 73 | 1013.7 |
| 20260507204003 | 25 | 90 | 1.6 | 4.8 | 0.00 | 1.12 | 0.81 | 75 | 1013.7 |
| 20260507203004 | 25 | 49 | 0.0 | 3.2 | 0.00 | 1.12 | 0.81 | 78 | 1013.6 |
| 20260507202504 | 24 | 52 | 0.0 | 3.2 | 0.00 | 1.12 | 0.81 | 80 | 1013.6 |
| 20260507202004 | 24 | 52 | 1.6 | 4.8 | 0.00 | 1.12 | 0.81 | 78 | 1013.7 |
| 20260507201503 | 23 | 75 | 1.6 | 8.0 | 0.00 | 1.12 | 0.81 | 78 | 1013.7 |
| 20260507200004 | 23 | 263 | 1.6 | 8.0 | 0.00 | 1.14 | 0.81 | 77 | 1013.9 |
| 20260507195004 | 23 | 55 | 1.6 | 8.0 | 0.00 | 1.14 | 0.81 | 80 | 1014.1 |
| 20260507194503 | 23 | 78 | 0.0 | 1.6 | 0.00 | 1.14 | 0.81 | 79 | 1014.2 |
| 20260507194004 | 23 | 7 | 0.0 | 4.8 | 0.00 | 1.22 | 0.81 | 79 | 1014.1 |
| 20260507193504 | 23 | 313 | 1.6 | 8.0 | 0.00 | 1.22 | 0.81 | 79 | 1014.2 |
| 20260507193004 | 23 | 315 | 0.0 | 0.0 | 0.03 | 1.22 | 0.81 | 79 | 1014.2 |
| 20260507192004 | 22 | 315 | 1.6 | 4.8 | 0.03 | 1.22 | 0.81 | 80 | 1014.4 |
| 20260507191503 | 22 | 287 | 0.0 | 1.6 | 0.03 | 1.22 | 0.81 | 80 | 1014.3 |
| 20260507191003 | 23 | 62 | 0.0 | 0.0 | 0.03 | 1.22 | 0.81 | 80 | 1014.4 |
| 20260507190504 | 22 | 62 | 0.0 | 1.6 | 0.03 | 1.22 | 0.81 | 80 | 1014.4 |
| 20260507185504 | 23 | 37 | 0.0 | 0.0 | 0.03 | 1.22 | 0.81 | 80 | 1014.4 |
| 20260507184504 | 23 | 72 | 3.2 | 4.8 | 0.03 | 1.22 | 0.81 | 81 | 1014.3 |
| 20260507183504 | 23 | 31 | 1.6 | 4.8 | 0.08 | 1.22 | 0.81 | 81 | 1014.3 |
| 20260507183004 | 23 | 11 | 0.0 | 1.6 | 0.05 | 1.19 | 0.79 | 80 | 1014.2 |
| 20260507182503 | 23 | 11 | 1.6 | 8.0 | 0.05 | 1.19 | 0.79 | 79 | 1014.2 |
| 20260507181504 | 23 | 24 | 1.6 | 8.0 | 0.05 | 1.19 | 0.79 | 83 | 1014.3 |
| 20260507181004 | 22 | 51 | 1.6 | 4.8 | 0.05 | 1.19 | 0.79 | 82 | 1014.5 |
| 20260507180004 | 22 | 78 | 1.6 | 8.0 | 0.05 | 1.19 | 0.79 | 82 | 1014.6 |
| 20260507175504 | 22 | 10 | 1.6 | 9.7 | 0.05 | 1.19 | 0.79 | 82 | 1014.6 |
| 20260507175004 | 22 | 63 | 4.8 | 12.9 | 0.10 | 1.19 | 0.79 | 84 | 1014.7 |
| 20260507174003 | 22 | 333 | 3.2 | 9.7 | 0.05 | 1.14 | 0.74 | 85 | 1014.8 |
| 20260507173504 | 22 | 30 | 1.6 | 12.9 | 0.05 | 1.14 | 0.74 | 85 | 1014.8 |
| 20260507173004 | 22 | 34 | 1.6 | 8.0 | 0.05 | 1.14 | 0.74 | 85 | 1014.8 |
| 20260507172503 | 21 | 298 | 1.6 | 9.7 | 0.05 | 1.14 | 0.74 | 86 | 1014.7 |
| 20260507171503 | 21 | 315 | 0.0 | 4.8 | 0.08 | 1.14 | 0.74 | 87 | 1014.9 |
| 20260507170003 | 21 | 336 | 0.0 | 8.0 | 0.10 | 1.14 | 0.74 | 91 | 1014.8 |
| 20260507165504 | 21 | 31 | 1.6 | 4.8 | 0.13 | 1.14 | 0.74 | 91 | 1014.9 |
| 20260507165004 | 20 | 80 | 0.0 | 4.8 | 0.08 | 1.09 | 0.69 | 92 | 1015.1 |
| 20260507164503 | 20 | 257 | 0.0 | 4.8 | 0.08 | 1.09 | 0.69 | 92 | 1015.1 |
| 20260507164003 | 20 | 5 | 1.6 | 8.0 | 0.10 | 1.09 | 0.69 | 92 | 1015.1 |
| 20260507163504 | 20 | 42 | 3.2 | 9.7 | 0.10 | 1.09 | 0.69 | 91 | 1015.3 |
| 20260507163004 | 21 | 349 | 1.6 | 4.8 | 0.10 | 1.09 | 0.69 | 90 | 1015.1 |
| 20260507162503 | 21 | 326 | 1.6 | 4.8 | 0.10 | 1.09 | 0.69 | 89 | 1015.2 |
| 20260507162004 | 21 | 11 | 3.2 | 11.3 | 0.10 | 1.07 | 0.66 | 87 | 1015.2 |
| 20260507161504 | 21 | 331 | 0.0 | 4.8 | 0.13 | 1.07 | 0.66 | 86 | 1015.0 |
| 20260507161004 | 21 | 1 | 0.0 | 0.0 | 0.10 | 1.04 | 0.64 | 86 | 1015.0 |
| 20260507160504 | 21 | 1 | 0.0 | 4.8 | 0.15 | 1.04 | 0.64 | 87 | 1014.9 |
| 20260507160004 | 21 | 347 | 0.0 | 8.0 | 0.15 | 1.04 | 0.64 | 87 | 1014.9 |
| 20260507155504 | 21 | 333 | 1.6 | 8.0 | 0.13 | 1.02 | 0.61 | 86 | 1014.9 |
| 20260507155003 | 21 | 15 | 0.0 | 1.6 | 0.13 | 1.02 | 0.61 | 87 | 1014.9 |
| 20260507154504 | 21 | 47 | 1.6 | 9.7 | 0.15 | 1.02 | 0.61 | 87 | 1014.9 |
| 20260507154004 | 21 | 19 | 0.0 | 4.8 | 0.18 | 0.99 | 0.58 | 88 | 1014.9 |
| 20260507153504 | 21 | 16 | 0.0 | 8.0 | 0.20 | 0.99 | 0.58 | 88 | 1014.8 |
| 20260507153004 | 21 | 34 | 1.6 | 8.0 | 0.23 | 0.99 | 0.58 | 88 | 1014.9 |
| 20260507152503 | 21 | 35 | 1.6 | 11.3 | 0.23 | 0.99 | 0.58 | 88 | 1014.9 |
| 20260507152004 | 21 | 355 | 1.6 | 8.0 | 0.20 | 0.97 | 0.56 | 89 | 1014.9 |
| 20260507151504 | 21 | 335 | 1.6 | 9.7 | 0.18 | 0.94 | 0.53 | 88 | 1014.9 |
| 20260507151004 | 21 | 14 | 1.6 | 9.7 | 0.18 | 0.94 | 0.53 | 88 | 1014.9 |
| 20260507150004 | 21 | 358 | 1.6 | 8.0 | 0.15 | 0.89 | 0.48 | 89 | 1014.8 |
| 20260507145504 | 21 | 39 | 3.2 | 11.3 | 0.15 | 0.89 | 0.48 | 89 | 1014.8 |
| 20260507145004 | 21 | 5 | 1.6 | 8.0 | 0.18 | 0.89 | 0.48 | 90 | 1014.9 |
| 20260507144503 | 21 | 26 | 1.6 | 8.0 | 0.15 | 0.86 | 0.46 | 91 | 1014.9 |
| 20260507144004 | 21 | 10 | 3.2 | 11.3 | 0.10 | 0.81 | 0.41 | 90 | 1014.8 |
| 20260507143504 | 21 | 356 | 3.2 | 12.9 | 0.08 | 0.79 | 0.38 | 91 | 1014.8 |
| 20260507143004 | 21 | 336 | 3.2 | 16.1 | 0.05 | 0.76 | 0.36 | 90 | 1014.8 |
| 20260507142504 | 21 | 326 | 1.6 | 11.3 | 0.05 | 0.76 | 0.36 | 91 | 1014.7 |
| 20260507142004 | 21 | 340 | 3.2 | 11.3 | 0.05 | 0.76 | 0.36 | 91 | 1014.7 |
| 20260507140503 | 22 | 13 | 3.2 | 11.3 | 0.05 | 0.76 | 0.36 | 92 | 1014.7 |
| 20260507140004 | 22 | 7 | 1.6 | 4.8 | 0.03 | 0.74 | 0.33 | 92 | 1014.6 |
| 20260507135003 | 22 | 330 | 1.6 | 9.7 | 0.03 | 0.71 | 0.30 | 92 | 1014.5 |
| 20260507134003 | 22 | 18 | 0.0 | 1.6 | 0.03 | 0.71 | 0.30 | 93 | 1014.4 |
| 20260507133504 | 22 | 352 | 0.0 | 3.2 | 0.08 | 0.71 | 0.30 | 93 | 1014.4 |
| 20260507132503 | 22 | 25 | 3.2 | 9.7 | 0.08 | 0.71 | 0.30 | 93 | 1014.5 |
| 20260507132004 | 22 | 343 | 3.2 | 12.9 | 0.08 | 0.71 | 0.30 | 93 | 1014.4 |
| 20260507131504 | 22 | 310 | 4.8 | 9.7 | 0.08 | 0.71 | 0.30 | 92 | 1014.4 |
| 20260507131003 | 22 | 322 | 3.2 | 8.0 | 0.08 | 0.71 | 0.30 | 92 | 1014.3 |
| 20260507130504 | 22 | 282 | 1.6 | 9.7 | 0.08 | 0.71 | 0.30 | 92 | 1014.3 |
| 20260507130003 | 23 | 318 | 1.6 | 9.7 | 0.08 | 0.71 | 0.30 | 92 | 1014.1 |
| 20260507124003 | 24 | 19 | 3.2 | 12.9 | 0.05 | 0.69 | 0.28 | 89 | 1014.0 |
| 20260507123504 | 25 | 313 | 3.2 | 9.7 | 0.00 | 0.64 | 0.23 | 91 | 1013.8 |
| 20260507123003 | 25 | 274 | 8.0 | 9.7 | 0.00 | 0.64 | 0.23 | 91 | 1013.5 |
| 20260507122504 | 25 | 260 | 3.2 | 9.7 | 0.03 | 0.64 | 0.23 | 91 | 1013.4 |
| 20260507121004 | 25 | 222 | 1.6 | 12.9 | 0.05 | 0.64 | 0.23 | 90 | 1013.2 |
| 20260507120504 | 25 | 238 | 4.8 | 11.3 | 0.05 | 0.64 | 0.23 | 90 | 1013.2 |
| 20260507120004 | 25 | 265 | 6.4 | 11.3 | 0.05 | 0.64 | 0.23 | 90 | 1013.1 |
| 20260507115504 | 25 | 254 | 3.2 | 8.0 | 0.05 | 0.64 | 0.23 | 90 | 1013.0 |
| 20260507115004 | 25 | 235 | 4.8 | 11.3 | 0.05 | 0.64 | 0.23 | 90 | 1013.0 |
| 20260507114503 | 25 | 242 | 1.6 | 12.9 | 0.05 | 0.64 | 0.23 | 90 | 1013.0 |
| 20260507114003 | 25 | 248 | 4.8 | 8.0 | 0.05 | 0.64 | 0.23 | 90 | 1012.9 |
| 20260507113504 | 25 | 233 | 3.2 | 9.7 | 0.05 | 0.64 | 0.23 | 90 | 1012.8 |
| 20260507113004 | 25 | 237 | 4.8 | 11.3 | 0.05 | 0.64 | 0.23 | 90 | 1012.8 |
| 20260507111004 | 25 | 230 | 4.8 | 11.3 | 0.00 | 0.58 | 0.18 | 89 | 1012.2 |
| 20260507110503 | 25 | 275 | 3.2 | 8.0 | 0.00 | 0.58 | 0.18 | 89 | 1012.3 |
| 20260507110004 | 25 | 268 | 4.8 | 11.3 | 0.00 | 0.58 | 0.18 | 89 | 1012.2 |
| 20260507105504 | 25 | 234 | 4.8 | 9.7 | 0.00 | 0.58 | 0.18 | 89 | 1012.0 |
| 20260507105004 | 25 | 239 | 3.2 | 11.3 | 0.00 | 0.58 | 0.18 | 89 | 1011.9 |
| 20260507104504 | 25 | 220 | 4.8 | 12.9 | 0.00 | 0.58 | 0.18 | 89 | 1011.9 |
| 20260507104004 | 25 | 266 | 4.8 | 12.9 | 0.00 | 0.58 | 0.18 | 89 | 1011.8 |
| 20260507103504 | 25 | 236 | 4.8 | 14.5 | 0.00 | 0.58 | 0.18 | 89 | 1011.7 |
| 20260507103004 | 25 | 188 | 3.2 | 8.0 | 0.00 | 0.58 | 0.18 | 89 | 1011.7 |